Phoenix, AZ

4:58 AM MST on September 25, 2016 (GMT -0700)
Phoenix Sky Harbor International

Weather History for KPHX - October, 2011

Change the Weather History Date:

Monday, October 24, 2011

  Actual Average Record
Temperature  
Mean Temperature 81 °F 74 °F  
Max Temperature 93 °F 85 °F 96 °F (1959)
Min Temperature 68 °F 62 °F 41 °F (1920)
Degree Days  
Heating Degree Days 0 0  
Month to date heating degree days 0 0  
Since 1 July heating degree days 0 0  
Cooling Degree Days 16 9  
Month to date cooling degree days 369 316  
Year to date cooling degree days 4797 4485  
Growing Degree Days 30 (Base 50)    
Moisture  
Dew Point 37 °F    
Average Humidity 28    
Maximum Humidity 45    
Minimum Humidity 11    
Precipitation  
Precipitation T in 0.02 in 0.22 in (1919)
Month to date precipitation 0.06 0.45  
Year to date precipitation 2.70 6.37  
Snow  
Snow 0.00 in - - ()
Month to date snowfall 0.0  
Year to date snowfall 0.0  
Since 1 July snowfall 0.0  
Snow Depth 0.00 in    
Sea Level Pressure  
Sea Level Pressure 29.88 in    
Wind  
Wind Speed 3 mph (ESE)    
Max Wind Speed 12 mph    
Max Gust Speed 15 mph    
Visibility 10 miles    
Events      
T = Trace of Precipitation, MM = Missing Value Source: NWS Daily Summary

Daily Weather History Graph

Daily Weather History Graph

Search for Another Location

Airport or City:

Trip Planner

Search our weather history database for the weather conditions in past years. The results will help you decide how hot, cold, wet, or windy it might be!

Date:

Astronomy

Oct. 24, 2011 Rise Set
Actual Time 6:39 AM MST 5:44 PM MST
Civil Twilight 6:14 AM MST 6:09 PM MST
Nautical Twilight 5:45 AM MST 6:38 PM MST
Astronomical Twilight 5:16 AM MST 7:07 PM MST
Moon 4:08 AM MST (10/24) 4:07 PM MST (10/24)
Length of Visible Light 11h 55m
Length of Day
11h 04m
Waning Crescent, 6% of the Moon is Illuminated
Oct 24
Waning Crescent
Oct 26
New
Nov 2
First Quarter
Nov 10
Full
Nov 18
Last Quarter

Hourly Weather History & Observations

Time (MST) Temp. Dew Point Humidity Pressure Visibility Wind Dir Wind Speed Gust Speed Precip Events Conditions
12:51 AM 73.0 °F 37.0 °F 27% 29.88 in 10.0 mi East 4.6 mph - N/A   Clear
1:51 AM 73.0 °F 35.1 °F 25% 29.88 in 10.0 mi Calm Calm - N/A   Clear
2:51 AM 72.0 °F 34.0 °F 25% 29.87 in 10.0 mi ENE 3.5 mph - N/A   Clear
3:51 AM 70.0 °F 37.9 °F 31% 29.87 in 10.0 mi Calm Calm - N/A   Clear
4:51 AM 69.1 °F 35.1 °F 29% 29.88 in 10.0 mi East 5.8 mph - N/A   Clear
5:51 AM 69.1 °F 37.0 °F 31% 29.89 in 10.0 mi East 5.8 mph - N/A   Clear
6:51 AM 68.0 °F 36.0 °F 31% 29.91 in 10.0 mi East 3.5 mph - N/A   Scattered Clouds
7:51 AM 71.1 °F 36.0 °F 28% 29.94 in 10.0 mi Calm Calm - N/A   Scattered Clouds
8:51 AM 75.0 °F 37.9 °F 26% 29.94 in 10.0 mi East 5.8 mph - N/A   Mostly Cloudy
9:51 AM 78.1 °F 33.1 °F 19% 29.95 in 10.0 mi ESE 4.6 mph - N/A   Mostly Cloudy
10:51 AM 82.0 °F 33.1 °F 17% 29.94 in 10.0 mi East 6.9 mph - N/A   Mostly Cloudy
11:51 AM 84.0 °F 34.0 °F 17% 29.92 in 10.0 mi Calm Calm - N/A   Mostly Cloudy
12:51 PM 89.1 °F 33.1 °F 14% 29.88 in 10.0 mi Calm Calm - N/A   Mostly Cloudy
1:51 PM 90.0 °F 32.0 °F 13% 29.86 in 10.0 mi Calm Calm - N/A   Mostly Cloudy
2:51 PM 91.0 °F 30.0 °F 11% 29.85 in 10.0 mi Calm Calm - N/A   Mostly Cloudy
3:51 PM 91.9 °F 30.9 °F 11% 29.84 in 10.0 mi South 4.6 mph - N/A   Mostly Cloudy
4:51 PM 90.0 °F 35.1 °F 14% 29.84 in 10.0 mi South 3.5 mph - N/A   Mostly Cloudy
5:51 PM 90.0 °F 35.1 °F 14% 29.84 in 10.0 mi South 5.8 mph - N/A   Mostly Cloudy
6:51 PM 88.0 °F 36.0 °F 16% 29.86 in 10.0 mi South 6.9 mph - N/A   Mostly Cloudy
7:51 PM 86.0 °F 37.0 °F 18% 29.87 in 10.0 mi Calm Calm - N/A   Mostly Cloudy
8:51 PM 88.0 °F 36.0 °F 16% 29.87 in 10.0 mi NW 3.5 mph - N/A   Mostly Cloudy
9:51 PM 84.9 °F 37.9 °F 19% 29.88 in 10.0 mi Calm Calm - N/A   Mostly Cloudy
10:51 PM 79.0 °F 55.0 °F 44% 29.87 in 10.0 mi Calm Calm - 0.00 in   Mostly Cloudy
11:51 PM 78.1 °F 55.0 °F 45% 29.88 in 10.0 mi East 3.5 mph - N/A   Mostly Cloudy